Location: Taukkyan
(23.1052°N, 94.0030°E)
Time: 11:45:51
(UTC+00:00)

EXPRESS MD2 - Pass Details

Date: 06 July 2020
Orbit: 260 x 4018 km, 49.9° (Epoch: 14 August)

Event Time Altitude Azimuth Distance (km) Brightness Sun altitude
Rises 12:52:40 0° 331° (NNW) 2,175 7.4 -4.7°
Reaches altitude 10° 12:54:18 10° 341° (NNW) 1,513 6.3 -5.1°
Maximum altitude 12:57:21 37° 52° (NE) 920 4.3 -5.7°
Drops below altitude 10° 13:02:50 10° 119° (ESE) 2,762 6.2 -6.8°
Enters shadow 13:03:34 - 121° (ESE) 3,058 6.4 -7.0°
